Location: Eschertshofen
(49.3064°N, 11.5756°E)
Time: 14:36:04
(UTC+00:00)

Iridium 4 Rocket - Pass Details

Date: 18 September 2020
Orbit: 584 x 905 km, 86.9° (Epoch: 27 October)

Event Time Altitude Azimuth Distance (km) Brightness Sun altitude
Rises 17:41:15 0° 172° (S) 3,065 6.5 -4.3°
Reaches altitude 10° 17:43:27 10° 169° (S) 2,199 5.7 -4.7°
Maximum altitude 17:48:18 65° 88° (E) 848 3.5 -5.5°
Drops below altitude 10° 17:53:41 10° 8° (N) 2,425 6.1 -6.4°
Sets 17:56:12 0° 6° (N) 3,407 6.9 -6.8°
